Vertical_Velocity
-2 -2 1 0 -0 -0 1 -1 -2 1 1 -0 3 3 5 2 3 4 3 3 4 1 -1 3 -0 -1 4 8 37 7 -3 3 5 2 -1 3 3 1 5 4 9 15 3 -0
-1 -1 0 3 -2 -4 1 2 2 2 2 1 2 6 2 0 6 1 3 -2 1 2 0 -1 -0 3 2 4 -0 4 19 18 -1 -3 -2 -2 -1 -1 -5 1 -1 2 1 0
-1 -1 -0 -4 -0 4 3 2 3 2 0 5 2 0 2 3 2 0 3 -1 -3 1 1 -1 -1 -1 0 1 -1 0 -2 31 50 26 21 9 6 1 -1 -2 -0 -2 -5 -4
2 -0 -1 0 4 4 2 1 1 2 5 1 -1 3 1 4 5 6 6 3 2 3 -0 2 2 1 -1 -1 -0 15 1 -3 15 1 3 43 -3 29 4 39 -5 -1 2 2
-1 2 2 0 1 1 4 3 1 1 -0 1 1 3 2 3 3 2 1 2 2 2 0 1 0 -3 -1 -1 -4 -3 -3 0 2 -1 7 11 13 13 47 38 33 19 13 6
1 -2 5 -1 -3 0 2 1 -0 1 1 1 1 1 3 1 1 0 2 3 1 1 0 0 0 -0 -1 -1 -1 0 -3 -1 -1 1 0 -5 3 24 6 3 18 25 -1 5
1 -1 -1 -0 2 -1 2 2 -0 0 0 1 0 2 1 1 3 2 1 1 2 1 1 0 0 0 -0 -0 -0 0 -0 -1 -3 -6 -3 -0 -2 1 2 0 15 14 21 21
0 -1 -1 -1 -3 -1 2 -1 0 1 0 -0 0 1 0 -1 1 -0 -1 -0 1 2 1 -2 0 2 0 -0 0 0 1 2 1 -0 2 -3 -5 -0 -1 -2 2 -1 1 -2
-1 6 -1 1 -1 3 0 0 1 1 1 1 1 0 -1 -0 2 1 -1 -1 -0 -0 1 2 0 -1 1 -0 0 0 -2 -1 1 2 1 2 -0 -0 -1 -1 -2 -3 -2 -0
-2 -1 2 0 1 -1 -1 1 1 2 1 0 0 -1 -1 -0 0 -1 0 1 1 1 2 1 1 0 -1 0 1 -0 1 -1 -0 1 -1 -2 -2 -2 -1 1 -1 0 -1 2
-2 -2 1 2 -3 0 2 0 2 1 0 1 -0 -2 -3 -3 -1 -1 -1 -1 0 0 0 0 0 -0 2 2 1 0 1 1 -1 -3 -2 -1 -2 -0 -1 -3 -5 -4 -4 -3
-0 3 1 -1 1 1 2 3 1 1 -1 0 0 -2 -0 -1 -1 -2 -1 -0 -1 -0 -0 1 0 -0 -0 -1 -1 2 1 -0 0 3 2 -0 -1 -1 -2 -3 -4 -3 -3 -3
2 1 -0 -0 -1 0 0 0 0 -0 -1 -1 -1 -1 -1 -1 -0 -0 0 -0 0 -2 -2 -0 -2 -2 -2 -2 -1 -1 -4 -5 -1 0 -3 -7 -4 -2 -2 1 0 -0 -1 -3
1 1 0 1 2 2 1 2 2 0 -1 -1 -0 -2 -1 -1 1 1 2 1 0 0 1 -0 -1 -1 -1 -0 0 -1 -2 -3 -4 -4 -0 -2 -2 -1 -1 -2 -3 -4 -2 -2
1 2 3 2 1 2 1 1 0 -1 -2 -2 -2 -1 0 -1 0 -0 -1 -1 -2 -1 -2 -2 -1 -1 -1 -3 -4 -4 -5 -5 -3 -2 -1 0 -2 -2 -1 -1 -2 -4 -6 -4
2 1 3 2 2 1 2 3 1 -1 -2 -2 -1 -1 -2 -2 -2 -1 0 0 -0 -1 0 -1 -3 -3 -2 -3 -3 -2 -2 -2 -2 -4 -5 -5 -4 -4 -6 -6 -6 -5 -3 -3
-1 1 2 3 2 2 2 0 1 1 -1 -0 1 -1 1 0 1 1 0 -1 -1 -2 -2 -2 -2 -2 -3 -2 -3 -3 -3 -3 -5 -4 -4 -4 -2 -3 -3 -0 -0 -0 0 -3
-4 1 1 2 3 1 -1 1 -0 1 1 -1 -0 -3 -1 -1 0 -0 -1 -1 -1 -0 -0 -0 -1 -1 -2 -3 -3 -3 -6 -7 -6 -7 -6 -8 -10 -9 -9 -9 -8 -8 -9 -6
0 2 4 3 2 0 -1 2 2 0 -1 -0 -2 -2 -0 0 1 -0 -0 1 1 1 -1 -1 -1 -2 -2 -2 -2 -3 -4 -5 -6 -6 -8 -8 -7 -8 -8 -8 -9 -8 -7 -8
0 -3 -5 0 -0 1 1 2 1 0 3 0 0 2 1 0 1 2 1 1 0 -0 -0 -1 -2 -2 -3 -3 -5 -5 -4 -4 -5 -7 -7 -9 -9 -10 -11 -10 -9 -11 -10 -7
-1 0 2 1 -0 1 2 2 1 3 2 0 2 1 -1 0 1 1 1 0 -1 -0 -1 -2 -3 -3 -3 -5 -4 -5 -7 -6 -6 -7 -8 -7 -8 -10 -9 -9 -8 -5 -4 -4
-1 -1 -0 -0 1 1 2 1 2 1 0 1 0 -1 -1 -1 1 1 0 -1 0 -1 -2 -3 -2 -2 -3 -4 -4 -4 -4 -6 -6 -6 -6 -7 -6 -6 -6 -5 -4 -3 -3 -2
1 -0 -0 -1 0 1 0 2 2 2 1 -0 -0 -1 -1 0 1 0 -1 -3 -3 -2 -2 -2 -2 -3 -3 -3 -5 -5 -6 -6 -6 -6 -5 -4 -6 -5 -3 -2 -2 -3 -2 -1
1 2 2 3 -0 0 3 3 2 -0 -0 0 -1 0 1 1 -1 -1 -1 -2 -3 -2 -2 -3 -3 -2 -1 -3 -2 -3 -3 -3 -4 -5 -4 -5 -4 -3 -4 -2 -1 -1 -1 -1
4 0 0 3 3 2 2 0 0 -0 0 -0 0 1 1 -0 1 -0 -2 -1 -1 -2 -2 -1 -1 -2 -4 -4 -4 -4 -4 -4 -3 -4 -4 -3 -2 -2 -2 -3 -2 -0 0 0
3 2 2 3 2 2 1 -0 -0 -0 -0 0 1 1 -0 -0 -1 -1 -1 -1 -2 -2 -2 -1 -3 -3 -3 -3 -3 -3 -3 -2 -3 -3 -3 -2 -2 -2 -1 -0 -0 -1 -1 -1
2 2 2 2 2 1 0 0 -0 0 0 -0 1 -0 -1 -1 -1 -0 -1 -2 -2 -1 -1 -2 -1 -0 -3 -3 -3 -2 -2 -2 -2 -2 -2 -2 -2 -1 -1 -1 -1 -0 0 0
Height
5553 5552 5554 5555 5556 5556 5556 5556 5556 5558 5558 5558 5556 5556 5555 5553 5550 5548 5545 5545 5546 5547 5547 5546 5546 5542 5542 5544 5547 5545 5546 5550 5554 5559 5565 5571 5577 5582 5588 5593 5599 5605 5609 5613
5552 5552 5553 5553 5553 5553 5553 5553 5555 5556 5556 5556 5555 5556 5554 5553 5552 5549 5548 5546 5547 5547 5548 5549 5548 5547 5546 5545 5545 5544 5548 5549 5553 5558 5562 5567 5572 5578 5582 5587 5591 5595 5599 5603
5550 5550 5551 5551 5550 5549 5550 5552 5554 5555 5555 5555 5555 5555 5555 5553 5552 5551 5551 5549 5549 5549 5548 5548 5548 5548 5547 5547 5547 5547 5548 5546 5551 5555 5558 5559 5567 5572 5575 5579 5583 5585 5589 5592
5547 5548 5549 5549 5548 5548 5551 5551 5552 5553 5554 5555 5555 5556 5555 5554 5553 5552 5552 5552 5551 5550 5550 5549 5548 5548 5548 5547 5547 5546 5547 5547 5548 5551 5554 5558 5563 5566 5570 5570 5573 5576 5579 5583
5544 5545 5548 5548 5549 5550 5551 5552 5552 5553 5554 5555 5555 5555 5556 5555 5554 5554 5553 5553 5552 5551 5551 5550 5549 5548 5548 5548 5548 5547 5547 5546 5548 5549 5552 5553 5556 5559 5561 5563 5569 5571 5573 5575
5544 5546 5546 5548 5549 5549 5550 5551 5552 5553 5554 5554 5555 5555 5555 5555 5555 5554 5553 5553 5552 5551 5551 5550 5550 5549 5548 5547 5547 5547 5547 5546 5547 5547 5547 5550 5550 5552 5554 5556 5560 5560 5565 5568
5542 5544 5546 5547 5547 5548 5550 5554 5552 5553 5554 5554 5555 5555 5555 5555 5554 5554 5553 5553 5551 5551 5550 5550 5550 5549 5548 5548 5547 5546 5546 5545 5545 5546 5545 5546 5547 5547 5550 5551 5554 5556 5557 5559
5541 5542 5544 5544 5545 5547 5549 5549 5551 5552 5553 5554 5555 5554 5554 5554 5553 5554 5553 5553 5552 5551 5550 5550 5550 5548 5548 5548 5547 5546 5545 5545 5545 5545 5544 5544 5545 5546 5545 5545 5547 5548 5550 5551
5537 5540 5541 5541 5543 5545 5547 5549 5551 5552 5553 5554 5554 5554 5554 5554 5554 5554 5554 5553 5552 5551 5550 5550 5549 5548 5547 5546 5546 5545 5544 5543 5542 5542 5542 5542 5542 5542 5542 5542 5541 5542 5543 5543
5533 5536 5538 5540 5542 5544 5547 5548 5550 5551 5552 5553 5554 5554 5554 5554 5554 5554 5553 5553 5552 5551 5551 5550 5549 5548 5547 5546 5545 5544 5543 5542 5541 5540 5538 5537 5536 5536 5536 5536 5536 5536 5535 5534
5530 5533 5536 5539 5541 5543 5546 5547 5548 5549 5550 5552 5553 5554 5554 5554 5554 5554 5554 5554 5553 5552 5551 5551 5550 5549 5547 5545 5544 5542 5541 5540 5538 5537 5536 5534 5534 5533 5532 5531 5530 5529 5528 5526
5528 5531 5534 5537 5539 5542 5544 5545 5547 5548 5550 5551 5552 5553 5552 5552 5553 5553 5553 5552 5552 5552 5551 5549 5548 5547 5546 5545 5542 5541 5539 5537 5536 5534 5532 5530 5528 5526 5524 5522 5521 5520 5518 5517
5526 5529 5531 5535 5537 5539 5542 5544 5546 5547 5548 5549 5550 5550 5551 5551 5551 5551 5551 5551 5551 5550 5550 5548 5547 5545 5544 5542 5540 5539 5537 5535 5531 5529 5526 5524 5521 5519 5517 5515 5511 5509 5507 5505
5522 5526 5529 5532 5534 5536 5539 5541 5543 5544 5545 5546 5546 5547 5548 5549 5549 5550 5550 5550 5549 5548 5548 5547 5545 5543 5542 5540 5538 5535 5533 5530 5527 5524 5520 5516 5513 5510 5506 5502 5498 5495 5491 5488
5518 5521 5525 5529 5531 5534 5536 5538 5540 5541 5542 5543 5544 5544 5545 5546 5546 5547 5547 5547 5546 5545 5544 5543 5541 5539 5537 5535 5532 5529 5526 5522 5518 5514 5510 5506 5503 5498 5494 5489 5485 5480 5476 5471
5513 5517 5522 5525 5529 5531 5533 5535 5537 5538 5540 5540 5541 5542 5543 5543 5544 5544 5544 5543 5543 5542 5540 5539 5537 5534 5532 5529 5526 5522 5518 5514 5510 5505 5500 5494 5488 5482 5477 5471 5466 5460 5455 5449
5510 5516 5519 5523 5526 5529 5530 5532 5534 5536 5537 5538 5539 5540 5541 5541 5541 5541 5540 5540 5539 5538 5536 5534 5531 5528 5525 5522 5518 5513 5509 5504 5498 5493 5486 5480 5473 5467 5461 5454 5446 5439 5432 5424
5509 5513 5517 5520 5523 5526 5528 5529 5532 5533 5534 5535 5536 5537 5538 5537 5537 5536 5536 5535 5533 5531 5529 5526 5523 5520 5516 5512 5507 5501 5496 5490 5484 5477 5470 5464 5456 5449 5441 5432 5424 5414 5405 5396
5508 5511 5514 5517 5520 5523 5524 5525 5528 5529 5530 5531 5533 5534 5534 5533 5533 5532 5530 5529 5527 5525 5522 5518 5515 5511 5506 5500 5495 5489 5483 5476 5469 5461 5453 5444 5435 5426 5416 5406 5396 5385 5374 5364
5505 5509 5512 5514 5517 5519 5520 5522 5524 5525 5526 5527 5529 5530 5530 5529 5528 5526 5524 5522 5520 5517 5514 5509 5505 5500 5494 5488 5482 5476 5468 5460 5451 5442 5432 5422 5412 5401 5390 5378 5365 5353 5340 5330
5502 5505 5507 5510 5512 5515 5517 5518 5520 5522 5522 5523 5525 5525 5525 5523 5522 5520 5518 5515 5512 5508 5504 5499 5494 5488 5482 5475 5467 5459 5450 5441 5431 5420 5409 5398 5386 5373 5360 5347 5334 5323 5315 5307
5498 5501 5503 5506 5508 5511 5513 5514 5517 5518 5518 5519 5520 5519 5518 5517 5515 5513 5510 5507 5503 5498 5494 5488 5482 5475 5467 5459 5451 5442 5432 5421 5410 5398 5385 5373 5360 5346 5332 5320 5311 5303 5296 5289
5496 5498 5500 5503 5505 5507 5509 5511 5512 5513 5513 5514 5514 5513 5512 5510 5507 5504 5501 5497 5492 5487 5482 5475 5468 5460 5453 5444 5434 5423 5412 5401 5388 5375 5362 5348 5333 5321 5310 5301 5292 5283 5276 5269
5494 5495 5497 5499 5501 5503 5505 5506 5507 5508 5509 5509 5508 5506 5504 5502 5499 5495 5491 5486 5481 5475 5469 5462 5454 5446 5437 5427 5416 5405 5393 5380 5367 5353 5339 5324 5312 5301 5290 5281 5272 5263 5255 5248
5492 5493 5494 5496 5498 5500 5501 5502 5503 5503 5503 5502 5500 5498 5496 5493 5489 5485 5480 5475 5469 5462 5456 5448 5440 5430 5420 5410 5398 5386 5373 5359 5345 5330 5316 5304 5293 5282 5271 5261 5252 5244 5236 5228
5490 5491 5492 5494 5495 5496 5497 5498 5498 5497 5495 5494 5492 5489 5486 5483 5478 5473 5468 5463 5456 5449 5442 5433 5424 5414 5403 5392 5380 5367 5353 5339 5324 5310 5299 5287 5276 5265 5254 5244 5234 5224 5216 5208
5487 5488 5489 5490 5491 5492 5492 5491 5490 5489 5487 5485 5483 5480 5476 5472 5467 5462 5456 5450 5443 5436 5427 5419 5409 5398 5387 5374 5361 5348 5334 5319 5306 5294 5283 5272 5260 5249 5238 5227 5217 5207 5197 5189